ASY311 YMAV-YSCB

Flight info

Callsign ASY311
Flight time 0h 48m
Altitude 37000
Route ML H129 DOSEL Y59 ARRAN
Aircraft B38M/M-SADE2E3FGHIJ1J3J4J7M3P2RWXYZ/LB1D1

Departure

Time 2026-04-24 14:32
Airport Melbourne Avalon International Airport (YMAV)

Arrival

Time 2026-04-24 15:21
Airport Canberra Airport (YSCB)
Time Latitude Longitude Altitude Speed Heading
2026-04-24 14:09 -38.02992 144.47505 38 ft 0 kts
2026-04-24 14:26 -38.02984 144.47504 38 ft 2 kts 341°
2026-04-24 14:26 -38.02967 144.47462 38 ft 11 kts 293°
2026-04-24 14:27 -38.02968 144.47359 38 ft 14 kts 220°
2026-04-24 14:27 -38.03076 144.47321 36 ft 19 kts 192°
2026-04-24 14:27 -38.03196 144.47226 38 ft 23 kts 227°
2026-04-24 14:27 -38.03310 144.47076 38 ft 25 kts 213°
2026-04-24 14:28 -38.03490 144.47026 39 ft 29 kts 186°
2026-04-24 14:28 -38.03702 144.46993 39 ft 33 kts 187°
2026-04-24 14:28 -38.03925 144.46953 38 ft 31 kts 191°
2026-04-24 14:28 -38.04140 144.46917 38 ft 30 kts 187°
2026-04-24 14:29 -38.04330 144.46884 38 ft 29 kts 188°
2026-04-24 14:29 -38.04538 144.46850 39 ft 31 kts 187°
2026-04-24 14:29 -38.04747 144.46815 39 ft 31 kts 187°
2026-04-24 14:29 -38.04954 144.46780 39 ft 30 kts 187°
2026-04-24 14:30 -38.05091 144.46756 39 ft 30 kts 187°
2026-04-24 14:30 -38.05328 144.46715 39 ft 16 kts 188°
2026-04-24 14:30 -38.05431 144.46656 39 ft 19 kts 230°
2026-04-24 14:30 -38.05435 144.46504 39 ft 8 kts 294°
2026-04-24 14:31 -38.05405 144.46488 40 ft 4 kts 10°
2026-04-24 14:31 -38.05384 144.46491 40 ft 0 kts
2026-04-24 14:31 -38.05380 144.46492 38 ft 4 kts
2026-04-24 14:32 -38.05106 144.46539 38 ft 81 kts
2026-04-24 14:32 -38.04312 144.46678 98 ft 140 kts
2026-04-24 14:32 -38.03297 144.46831 723 ft 150 kts
2026-04-24 14:32 -38.02261 144.46991 1557 ft 149 kts
2026-04-24 14:33 -38.01203 144.47194 2385 ft 165 kts
2026-04-24 14:33 -38.00033 144.47680 3051 ft 197 kts 27°
2026-04-24 14:33 -37.98993 144.48995 3846 ft 221 kts 48°
2026-04-24 14:33 -37.98017 144.50512 4162 ft 222 kts 43°
2026-04-24 14:34 -37.96990 144.51997 4541 ft 226 kts 44°
2026-04-24 14:34 -37.95955 144.53506 5624 ft 227 kts 45°
2026-04-24 14:34 -37.94919 144.55029 6813 ft 230 kts 47°
2026-04-24 14:34 -37.93872 144.56573 7928 ft 232 kts 46°
2026-04-24 14:35 -37.93510 144.57093 8270 ft 235 kts 43°
2026-04-24 14:35 -37.92260 144.58452 9082 ft 250 kts 34°
2026-04-24 14:36 -37.90821 144.59844 9849 ft 270 kts 34°
2026-04-24 14:36 -37.89281 144.61348 10581 ft 289 kts 34°
2026-04-24 14:36 -37.87648 144.62951 11341 ft 304 kts 35°
2026-04-24 14:36 -37.85947 144.64626 12212 ft 316 kts 35°
2026-04-24 14:37 -37.84201 144.66347 13328 ft 320 kts 36°
2026-04-24 14:37 -37.82444 144.68076 14372 ft 328 kts 36°
2026-04-24 14:37 -37.80626 144.69863 15376 ft 334 kts 36°
2026-04-24 14:37 -37.78773 144.71684 16387 ft 340 kts 36°
2026-04-24 14:38 -37.76890 144.73535 17371 ft 347 kts 36°
2026-04-24 14:38 -37.74970 144.75420 18343 ft 353 kts 36°
2026-04-24 14:38 -37.73014 144.77341 19215 ft 359 kts 36°
2026-04-24 14:38 -37.71028 144.79288 20043 ft 364 kts 36°
2026-04-24 14:39 -37.69011 144.81266 20856 ft 369 kts 36°
2026-04-24 14:39 -37.66969 144.83266 21644 ft 375 kts 36°
2026-04-24 14:39 -37.64979 144.85434 22425 ft 381 kts 41°
2026-04-24 14:39 -37.63004 144.87694 23210 ft 386 kts 40°
2026-04-24 14:40 -37.60994 144.89969 23960 ft 391 kts 40°
2026-04-24 14:40 -37.59640 144.91494 24382 ft 395 kts 40°
2026-04-24 14:40 -37.57586 144.93802 25021 ft 399 kts 40°
2026-04-24 14:40 -37.55505 144.96136 25664 ft 402 kts 40°
2026-04-24 14:41 -37.53404 144.98490 26298 ft 406 kts 40°
2026-04-24 14:41 -37.51284 145.00864 26918 ft 410 kts 40°
2026-04-24 14:41 -37.49140 145.03262 27539 ft 414 kts 40°
2026-04-24 14:41 -37.46982 145.05674 28142 ft 418 kts 40°
2026-04-24 14:42 -37.44794 145.08118 28729 ft 421 kts 40°
2026-04-24 14:42 -37.42586 145.10581 29320 ft 425 kts 39°
2026-04-24 14:42 -37.40367 145.13056 29895 ft 429 kts 39°
2026-04-24 14:42 -37.38120 145.15559 30449 ft 433 kts 39°
2026-04-24 14:43 -37.35850 145.18086 30913 ft 437 kts 39°
2026-04-24 14:43 -37.33564 145.20628 31399 ft 440 kts 39°
2026-04-24 14:43 -37.31265 145.23183 31872 ft 444 kts 39°
2026-04-24 14:43 -37.28940 145.25764 32336 ft 447 kts 39°
2026-04-24 14:44 -37.26600 145.28360 32797 ft 450 kts 39°
2026-04-24 14:44 -37.24247 145.30967 33262 ft 453 kts 39°
2026-04-24 14:44 -37.21874 145.33596 33711 ft 457 kts 39°
2026-04-24 14:44 -37.19483 145.36242 34168 ft 460 kts 39°
2026-04-24 14:45 -37.17120 145.38889 34579 ft 464 kts 43°
2026-04-24 14:45 -37.15062 145.42089 34971 ft 468 kts 54°
2026-04-24 14:45 -37.13159 145.45435 35319 ft 472 kts 52°
2026-04-24 14:45 -37.11257 145.48715 35744 ft 473 kts 53°
2026-04-24 14:46 -37.09331 145.52061 36195 ft 474 kts 53°
2026-04-24 14:46 -37.07404 145.55413 36653 ft 474 kts 53°
2026-04-24 14:46 -37.05476 145.58763 37082 ft 475 kts 53°
2026-04-24 14:46 -37.03542 145.62121 37420 ft 477 kts 53°
2026-04-24 14:47 -37.01602 145.65487 37482 ft 476 kts 53°
2026-04-24 14:47 -36.97748 145.72165 37459 ft 473 kts 53°
2026-04-24 14:48 -36.93891 145.78834 37463 ft 473 kts 53°
2026-04-24 14:48 -36.90034 145.85490 37470 ft 473 kts 53°
2026-04-24 14:49 -36.86178 145.92131 37461 ft 472 kts 53°
2026-04-24 14:49 -36.82319 145.98765 37469 ft 472 kts 53°
2026-04-24 14:50 -36.78452 146.05399 37467 ft 472 kts 53°
2026-04-24 14:50 -36.74590 146.12012 37469 ft 471 kts 53°
2026-04-24 14:51 -36.70730 146.18608 37473 ft 471 kts 53°
2026-04-24 14:51 -36.66862 146.25204 37473 ft 471 kts 53°
2026-04-24 14:52 -36.63021 146.31742 37471 ft 471 kts 53°
2026-04-24 14:52 -36.59155 146.38310 37472 ft 470 kts 53°
2026-04-24 14:53 -36.55285 146.44873 37474 ft 470 kts 53°
2026-04-24 14:53 -36.51416 146.51421 37478 ft 469 kts 53°
2026-04-24 14:54 -36.47551 146.57950 37475 ft 469 kts 53°
2026-04-24 14:54 -36.43680 146.64475 37471 ft 469 kts 53°
2026-04-24 14:55 -36.40461 146.69893 37477 ft 469 kts 53°
2026-04-24 14:55 -36.35938 146.77490 37477 ft 468 kts 53°
2026-04-24 14:56 -36.32067 146.83979 37477 ft 468 kts 53°
2026-04-24 14:56 -36.28190 146.90466 37477 ft 468 kts 53°
2026-04-24 14:57 -36.24318 146.96935 37477 ft 467 kts 53°
2026-04-24 14:57 -36.20444 147.03395 37484 ft 467 kts 53°
2026-04-24 14:58 -36.16568 147.09839 37485 ft 467 kts 53°
2026-04-24 14:58 -36.12688 147.16280 37477 ft 466 kts 53°
2026-04-24 14:59 -36.08813 147.22701 37487 ft 466 kts 53°
2026-04-24 14:59 -36.04931 147.29123 37482 ft 466 kts 53°
2026-04-24 15:00 -36.01046 147.35536 37483 ft 466 kts 53°
2026-04-24 15:00 -35.97155 147.41948 37483 ft 466 kts 53°
2026-04-24 15:01 -35.93267 147.48344 37487 ft 466 kts 53°
2026-04-24 15:01 -35.89373 147.54738 36695 ft 466 kts 53°
2026-04-24 15:01 -35.87402 147.57972 35394 ft 478 kts 54°
2026-04-24 15:02 -35.85439 147.61260 34746 ft 472 kts 58°
2026-04-24 15:02 -35.83997 147.64886 33557 ft 474 kts 74°
2026-04-24 15:02 -35.83363 147.68857 32580 ft 472 kts 84°
2026-04-24 15:02 -35.82920 147.72783 31986 ft 464 kts 84°
2026-04-24 15:03 -35.82481 147.76743 31352 ft 459 kts 84°
2026-04-24 15:03 -35.82069 147.80626 30676 ft 455 kts 84°
2026-04-24 15:03 -35.81669 147.84485 29904 ft 452 kts 84°
2026-04-24 15:03 -35.81276 147.88300 29224 ft 447 kts 84°
2026-04-24 15:04 -35.80892 147.92025 28585 ft 442 kts 84°
2026-04-24 15:04 -35.80501 147.95808 27941 ft 437 kts 84°
2026-04-24 15:04 -35.80125 147.99439 27323 ft 432 kts 84°
2026-04-24 15:04 -35.79744 148.03100 26701 ft 428 kts 84°
2026-04-24 15:05 -35.79366 148.06724 26076 ft 425 kts 84°
2026-04-24 15:05 -35.78990 148.10322 25463 ft 422 kts 84°
2026-04-24 15:05 -35.78615 148.13892 24852 ft 418 kts 84°
2026-04-24 15:05 -35.78243 148.17436 24251 ft 415 kts 84°
2026-04-24 15:06 -35.77871 148.20958 23575 ft 412 kts 83°
2026-04-24 15:06 -35.77504 148.24433 22954 ft 408 kts 83°
2026-04-24 15:06 -35.77139 148.27871 22390 ft 402 kts 83°
2026-04-24 15:06 -35.76778 148.31264 21841 ft 397 kts 83°
2026-04-24 15:07 -35.76420 148.34618 21302 ft 393 kts 83°
2026-04-24 15:07 -35.76065 148.37944 20777 ft 389 kts 83°
2026-04-24 15:07 -35.75712 148.41235 20259 ft 386 kts 83°
2026-04-24 15:07 -35.75361 148.44501 19751 ft 383 kts 82°
2026-04-24 15:08 -35.75011 148.47740 19250 ft 381 kts 82°
2026-04-24 15:08 -35.74663 148.50961 18749 ft 378 kts 82°
2026-04-24 15:08 -35.74323 148.54115 18206 ft 376 kts 82°
2026-04-24 15:08 -35.73979 148.57294 17704 ft 372 kts 82°
2026-04-24 15:09 -35.73539 148.60392 17250 ft 367 kts 72°
2026-04-24 15:09 -35.72666 148.63322 16910 ft 364 kts 70°
2026-04-24 15:09 -35.71804 148.66250 16511 ft 365 kts 70°
2026-04-24 15:09 -35.70938 148.69178 16046 ft 362 kts 70°
2026-04-24 15:10 -35.70076 148.72086 15558 ft 360 kts 69°
2026-04-24 15:10 -35.69218 148.74972 15078 ft 358 kts 69°
2026-04-24 15:10 -35.68370 148.77826 14598 ft 355 kts 69°
2026-04-24 15:10 -35.67522 148.80674 14084 ft 353 kts 69°
2026-04-24 15:11 -35.66676 148.83513 13477 ft 352 kts 69°
2026-04-24 15:11 -35.65836 148.86328 12982 ft 349 kts 69°
2026-04-24 15:11 -35.65004 148.89117 12515 ft 345 kts 69°
2026-04-24 15:11 -35.64182 148.91865 12035 ft 342 kts 69°
2026-04-24 15:12 -35.63361 148.94610 11524 ft 340 kts 69°
2026-04-24 15:12 -35.61740 149.00022 10604 ft 334 kts 69°
2026-04-24 15:12 -35.60939 149.02690 10108 ft 332 kts 69°
2026-04-24 15:13 -35.60145 149.05333 9612 ft 329 kts 69°
2026-04-24 15:13 -35.59340 149.07897 9069 ft 314 kts 68°
2026-04-24 15:13 -35.58552 149.10353 8417 ft 306 kts 68°
2026-04-24 15:13 -35.57784 149.12753 7839 ft 297 kts 68°
2026-04-24 15:14 -35.57043 149.15072 7391 ft 286 kts 68°
2026-04-24 15:14 -35.56245 149.17210 6967 ft 262 kts 53°
2026-04-24 15:14 -35.54908 149.18505 6561 ft 235 kts 22°
2026-04-24 15:14 -35.53466 149.19199 6263 ft 212 kts 19°
2026-04-24 15:15 -35.52087 149.19441 6004 ft 189 kts
2026-04-24 15:15 -35.50843 149.19446 5750 ft 170 kts
2026-04-24 15:15 -35.49713 149.19447 5536 ft 158 kts
2026-04-24 15:15 -35.48619 149.19448 5373 ft 157 kts
2026-04-24 15:16 -35.47569 149.19447 5139 ft 144 kts
2026-04-24 15:16 -35.46600 149.19447 4932 ft 136 kts 360°
2026-04-24 15:16 -35.45667 149.19446 4726 ft 133 kts 360°
2026-04-24 15:16 -35.44746 149.19446 4549 ft 133 kts 360°
2026-04-24 15:17 -35.43834 149.19446 4373 ft 133 kts 360°
2026-04-24 15:17 -35.42912 149.19447 4189 ft 132 kts 360°
2026-04-24 15:17 -35.41991 149.19446 4013 ft 132 kts 360°
2026-04-24 15:17 -35.41069 149.19445 3846 ft 132 kts 360°
2026-04-24 15:18 -35.40150 149.19445 3655 ft 132 kts 360°
2026-04-24 15:18 -35.39226 149.19446 3479 ft 133 kts 360°
2026-04-24 15:18 -35.38304 149.19445 3282 ft 132 kts 360°
2026-04-24 15:18 -35.37380 149.19445 3089 ft 133 kts
2026-04-24 15:19 -35.36451 149.19445 2893 ft 134 kts
2026-04-24 15:19 -35.35523 149.19445 2695 ft 134 kts 360°
2026-04-24 15:19 -35.34594 149.19448 2484 ft 133 kts 360°
2026-04-24 15:19 -35.33667 149.19455 2310 ft 132 kts
2026-04-24 15:20 -35.32747 149.19455 2143 ft 133 kts
2026-04-24 15:20 -35.31824 149.19450 1988 ft 132 kts
2026-04-24 15:20 -35.30918 149.19448 1881 ft 124 kts 359°
2026-04-24 15:20 -35.30165 149.19443 1882 ft 87 kts
2026-04-24 15:21 -35.29713 149.19444 1880 ft 27 kts 360°
2026-04-24 15:21 -35.29595 149.19471 1882 ft 15 kts 62°
2026-04-24 15:21 -35.29617 149.19577 1880 ft 10 kts 143°
2026-04-24 15:21 -35.29699 149.19596 1882 ft 14 kts 180°
2026-04-24 15:22 -35.29813 149.19594 1882 ft 18 kts 179°
2026-04-24 15:22 -35.29956 149.19595 1882 ft 23 kts 180°
2026-04-24 15:22 -35.30127 149.19595 1882 ft 27 kts 180°
2026-04-24 15:23 -35.30315 149.19728 1882 ft 18 kts 126°
2026-04-24 15:23 -35.30362 149.19929 1880 ft 9 kts 123°
2026-04-24 15:23 -35.30377 149.19956 1882 ft 1 kts 125°
2026-04-24 15:24 -35.30379 149.19959 1882 ft 0 kts 125°